COSMOS 2464 (736)

Last updated on Jan. 23, 2021, 7:31 a.m. UTC

1 37139U 10041C   21022.65096133  .00000052  00000-0  00000-0 0  9996
2 37139  64.1009 258.2331 0028734  11.7807 168.0170  2.13100740 80860
UTC
Height (km)
Latitude
Longitude
Inclination
Orbital Period
UTC large
Height (km)
Speed (km/s)
/
Latitude / Longitude
Inclination (degrees)
Orbital Period (minutes)
Azimuth
Elevation
Range (km)
Doppler Factor
iOS Compass Heading
iOS Angle

Next 30 passes for location: Hong Kong

Rise time Rise Azimuth (degrees) Set time Set Azimuth (degrees) Duration Max altitude (degrees)

No matching passes for this satellites